CXA924 CYQG-CYPT

Flight info

Callsign CXA924
Flight time 0h 23m
Altitude 3500
Route 25 SE DEP DCT PIXUV R28
Aircraft K100/L-L/1200

Departure

Time 2026-04-21 12:25
Airport Windsor International Airport (CYQG)

Arrival

Time 2026-04-21 12:49
Airport Pelee Island Airport (CYPT)
Time Latitude Longitude Altitude Speed Heading
2026-04-21 12:11 42.26970 -82.96586 629 ft 0 kts 278°
2026-04-21 12:19 42.26976 -82.96597 629 ft 4 kts 335°
2026-04-21 12:19 42.27027 -82.96591 631 ft 10 kts 17°
2026-04-21 12:19 42.27095 -82.96548 634 ft 13 kts 31°
2026-04-21 12:20 42.27122 -82.96435 637 ft 17 kts 114°
2026-04-21 12:20 42.27071 -82.96275 629 ft 20 kts 102°
2026-04-21 12:20 42.27135 -82.96154 629 ft 21 kts 16°
2026-04-21 12:20 42.27292 -82.96094 626 ft 26 kts 15°
2026-04-21 12:21 42.27472 -82.96021 629 ft 28 kts 15°
2026-04-21 12:21 42.27581 -82.95857 630 ft 25 kts 63°
2026-04-21 12:21 42.27662 -82.95645 633 ft 27 kts 59°
2026-04-21 12:21 42.27752 -82.95416 630 ft 28 kts 60°
2026-04-21 12:22 42.27819 -82.95257 627 ft 31 kts 70°
2026-04-21 12:22 42.27915 -82.94995 630 ft 32 kts 62°
2026-04-21 12:22 42.28021 -82.94722 632 ft 33 kts 64°
2026-04-21 12:22 42.28129 -82.94442 628 ft 34 kts 70°
2026-04-21 12:23 42.28233 -82.94157 629 ft 34 kts 71°
2026-04-21 12:23 42.28334 -82.93986 625 ft 24 kts
2026-04-21 12:23 42.28465 -82.94084 625 ft 18 kts 294°
2026-04-21 12:23 42.28441 -82.94153 628 ft 0 kts 238°
2026-04-21 12:24 42.28418 -82.94206 627 ft 28 kts 244°
2026-04-21 12:24 42.28242 -82.94671 635 ft 81 kts 238°
2026-04-21 12:25 42.27958 -82.95303 899 ft 84 kts 227°
2026-04-21 12:25 42.27585 -82.96091 912 ft 111 kts 238°
2026-04-21 12:25 42.27224 -82.97051 1105 ft 119 kts 239°
2026-04-21 12:25 42.26842 -82.98098 1284 ft 128 kts 238°
2026-04-21 12:26 42.26436 -82.99203 1463 ft 134 kts 239°
2026-04-21 12:26 42.26020 -83.00334 1643 ft 135 kts 238°
2026-04-21 12:26 42.25529 -83.01357 1817 ft 127 kts 212°
2026-04-21 12:26 42.24690 -83.01438 1986 ft 132 kts 162°
2026-04-21 12:27 42.24135 -83.00363 2160 ft 159 kts 110°
2026-04-21 12:27 42.24407 -82.98842 2321 ft 179 kts 61°
2026-04-21 12:27 42.25176 -82.97511 2482 ft 180 kts 56°
2026-04-21 12:27 42.25661 -82.96029 2644 ft 168 kts 97°
2026-04-21 12:28 42.25546 -82.94499 2810 ft 165 kts 108°
2026-04-21 12:28 42.25396 -82.92967 2967 ft 168 kts 107°
2026-04-21 12:28 42.25150 -82.91457 3119 ft 157 kts 131°
2026-04-21 12:28 42.24330 -82.90792 3300 ft 133 kts 180°
2026-04-21 12:29 42.23422 -82.90435 3456 ft 143 kts 162°
2026-04-21 12:29 42.22560 -82.89669 3495 ft 153 kts 155°
2026-04-21 12:29 42.21693 -82.88814 3493 ft 158 kts 153°
2026-04-21 12:29 42.20807 -82.87917 3497 ft 160 kts 153°
2026-04-21 12:30 42.19918 -82.87008 3494 ft 161 kts 153°
2026-04-21 12:30 42.19022 -82.86096 3499 ft 161 kts 152°
2026-04-21 12:30 42.18124 -82.85182 3495 ft 162 kts 152°
2026-04-21 12:30 42.17227 -82.84271 3498 ft 162 kts 152°
2026-04-21 12:31 42.16328 -82.83358 3491 ft 162 kts 152°
2026-04-21 12:31 42.15440 -82.82453 3497 ft 160 kts 152°
2026-04-21 12:31 42.14579 -82.81577 3502 ft 159 kts 153°
2026-04-21 12:31 42.13678 -82.80663 3502 ft 160 kts 153°
2026-04-21 12:32 42.12800 -82.79773 3510 ft 159 kts 153°
2026-04-21 12:32 42.12060 -82.79022 3507 ft 159 kts 153°
2026-04-21 12:32 42.11338 -82.78289 3509 ft 160 kts 153°
2026-04-21 12:32 42.10662 -82.77606 3504 ft 160 kts 153°
2026-04-21 12:33 42.09811 -82.76744 3509 ft 161 kts 152°
2026-04-21 12:33 42.08982 -82.75905 3506 ft 160 kts 152°
2026-04-21 12:33 42.08091 -82.75000 3501 ft 160 kts 152°
2026-04-21 12:33 42.07202 -82.74099 3503 ft 160 kts 152°
2026-04-21 12:34 42.06311 -82.73200 3504 ft 160 kts 153°
2026-04-21 12:34 42.05421 -82.72298 3514 ft 160 kts 152°
2026-04-21 12:34 42.04529 -82.71394 3511 ft 162 kts 152°
2026-04-21 12:34 42.03763 -82.70621 3510 ft 162 kts 153°
2026-04-21 12:35 42.02928 -82.69781 3505 ft 162 kts 152°
2026-04-21 12:35 42.02028 -82.68869 3508 ft 162 kts 152°
2026-04-21 12:35 42.01130 -82.67959 3510 ft 161 kts 152°
2026-04-21 12:35 42.00237 -82.67056 3510 ft 161 kts 152°
2026-04-21 12:36 41.99342 -82.66153 3515 ft 160 kts 152°
2026-04-21 12:36 41.98468 -82.65273 3449 ft 160 kts 152°
2026-04-21 12:36 41.97623 -82.64417 3318 ft 151 kts 152°
2026-04-21 12:36 41.96796 -82.63583 3187 ft 151 kts 153°
2026-04-21 12:37 41.95955 -82.62738 3057 ft 151 kts 152°
2026-04-21 12:37 41.95118 -82.61895 2928 ft 150 kts 152°
2026-04-21 12:37 41.94286 -82.61057 2795 ft 149 kts 152°
2026-04-21 12:37 41.93460 -82.60223 2671 ft 148 kts 152°
2026-04-21 12:38 41.92636 -82.59394 2542 ft 148 kts 153°
2026-04-21 12:38 41.91829 -82.58582 2412 ft 146 kts 153°
2026-04-21 12:38 41.91025 -82.57774 2280 ft 143 kts 153°
2026-04-21 12:38 41.90242 -82.56985 2156 ft 141 kts 153°
2026-04-21 12:39 41.89479 -82.56219 2034 ft 140 kts 153°
2026-04-21 12:39 41.88698 -82.55436 1919 ft 137 kts 153°
2026-04-21 12:39 41.87989 -82.54715 1915 ft 126 kts 154°
2026-04-21 12:39 41.87313 -82.54032 1913 ft 118 kts 154°
2026-04-21 12:40 41.86676 -82.53394 1911 ft 113 kts 155°
2026-04-21 12:40 41.86054 -82.52774 1927 ft 110 kts 156°
2026-04-21 12:40 41.85437 -82.52162 1934 ft 112 kts 155°
2026-04-21 12:40 41.84814 -82.51538 1928 ft 113 kts 155°
2026-04-21 12:41 41.84184 -82.50908 1925 ft 113 kts 155°
2026-04-21 12:41 41.83553 -82.50275 1934 ft 114 kts 155°
2026-04-21 12:41 41.82923 -82.49646 1922 ft 116 kts 155°
2026-04-21 12:41 41.82279 -82.49001 1925 ft 118 kts 154°
2026-04-21 12:42 41.81605 -82.48396 1927 ft 114 kts 165°
2026-04-21 12:42 41.80866 -82.48122 1929 ft 107 kts 181°
2026-04-21 12:42 41.80153 -82.48151 1930 ft 100 kts 194°
2026-04-21 12:42 41.79511 -82.48432 1925 ft 97 kts 206°
2026-04-21 12:43 41.78960 -82.48929 1927 ft 96 kts 218°
2026-04-21 12:43 41.78526 -82.49615 1931 ft 98 kts 231°
2026-04-21 12:43 41.78245 -82.50449 1933 ft 102 kts 244°
2026-04-21 12:43 41.78147 -82.51414 1930 ft 108 kts 259°
2026-04-21 12:44 41.78151 -82.52404 1929 ft 105 kts 257°
2026-04-21 12:44 41.78149 -82.53316 1930 ft 93 kts 255°
2026-04-21 12:44 41.78141 -82.54157 1931 ft 89 kts 255°
2026-04-21 12:44 41.78135 -82.54970 1929 ft 86 kts 254°
2026-04-21 12:45 41.78129 -82.55756 1928 ft 84 kts 255°
2026-04-21 12:45 41.78123 -82.56534 1927 ft 83 kts 255°
2026-04-21 12:45 41.78119 -82.57297 1923 ft 83 kts 254°
2026-04-21 12:45 41.78115 -82.58074 1924 ft 83 kts 254°
2026-04-21 12:46 41.78117 -82.58849 1872 ft 80 kts 257°
2026-04-21 12:46 41.78118 -82.59554 1778 ft 73 kts 251°
2026-04-21 12:46 41.78109 -82.60232 1676 ft 73 kts 252°
2026-04-21 12:46 41.78100 -82.60919 1567 ft 75 kts 252°
2026-04-21 12:47 41.78096 -82.61638 1458 ft 79 kts 256°
2026-04-21 12:47 41.78093 -82.62386 1341 ft 81 kts 256°
2026-04-21 12:47 41.78087 -82.63155 1220 ft 84 kts 255°
2026-04-21 12:47 41.78082 -82.63968 1096 ft 89 kts 257°
2026-04-21 12:48 41.78082 -82.64778 968 ft 84 kts 256°
2026-04-21 12:48 41.78079 -82.65489 848 ft 71 kts 250°
2026-04-21 12:48 41.78067 -82.66133 753 ft 69 kts 252°
2026-04-21 12:48 41.78070 -82.66775 658 ft 70 kts 259°
2026-04-21 12:49 41.78050 -82.67384 603 ft 62 kts 256°
2026-04-21 12:49 41.78051 -82.67918 572 ft 42 kts 269°
2026-04-21 12:49 41.78047 -82.68057 573 ft 8 kts 296°
2026-04-21 12:49 41.78064 -82.67955 575 ft 19 kts 91°
2026-04-21 12:50 41.78054 -82.67760 577 ft 23 kts 95°
2026-04-21 12:50 41.78064 -82.67542 572 ft 17 kts 96°
2026-04-21 12:50 41.78062 -82.67423 576 ft 8 kts 98°
2026-04-21 12:50 41.78059 -82.67342 578 ft 10 kts 103°
2026-04-21 12:51 41.78010 -82.67258 577 ft 12 kts 126°
2026-04-21 12:51 41.77991 -82.67178 578 ft 9 kts 90°
2026-04-21 12:51 41.77991 -82.67118 579 ft 8 kts 77°
2026-04-21 12:51 41.77994 -82.67079 578 ft 0 kts 83°
2026-04-21 12:52 41.78001 -82.67074 578 ft 0 kts 10°